Probability
0 0 0 0 0 0 0 0 0 0 0 0 0 0 0 0 0 3 3 3 3 3 10 10 10 6 6 6 0 0 0 0 0 0 0 0 0 3 3 3 6 6 6 3
0 0 0 0 0 0 0 0 0 0 0 0 0 0 0 0 0 0 3 3 3 3 10 10 6 6 6 3 3 0 0 0 0 0 0 0 0 3 3 3 6 6 6 6
0 0 0 0 0 0 0 0 0 0 0 0 0 0 0 0 0 0 0 3 3 3 10 13 6 3 6 3 3 6 0 0 0 0 0 0 0 0 3 6 3 3 6 3
0 0 0 0 0 0 0 0 0 0 0 0 0 0 0 0 0 0 0 3 3 3 10 10 10 6 3 3 3 0 0 0 0 0 0 0 0 0 0 3 3 3 3 6
0 0 0 0 0 0 0 0 0 0 0 0 0 0 0 0 0 0 0 3 6 10 10 6 6 3 3 6 6 0 0 0 3 0 0 0 0 0 0 3 3 3 6 3
0 0 0 0 0 0 0 0 0 0 0 0 0 0 0 0 0 0 0 6 6 10 6 10 10 6 6 6 3 0 0 0 3 3 3 3 0 0 0 3 3 3 0 3
0 0 0 0 0 0 0 0 0 0 0 0 0 0 0 0 3 3 6 6 10 6 3 3 3 6 10 3 0 3 0 3 3 10 10 3 3 3 0 3 3 6 3 0
0 0 0 0 0 0 0 0 0 0 0 0 0 0 0 0 3 6 6 3 3 3 3 3 6 10 10 6 0 6 3 6 10 10 10 6 3 3 3 6 6 6 3 3
0 0 0 0 0 0 0 0 0 0 0 0 0 0 0 3 3 3 3 3 3 3 3 3 0 6 6 6 6 0 3 6 6 10 10 6 0 0 3 3 6 3 3 3
0 0 0 0 0 0 0 0 0 0 0 0 0 0 0 3 3 3 3 3 3 3 3 6 3 6 6 3 3 6 3 3 3 3 3 3 0 3 3 6 6 6 3 3
0 0 0 0 0 0 0 0 0 0 0 0 0 0 3 3 3 3 3 3 6 3 3 3 3 0 0 3 3 10 10 6 6 10 10 13 6 6 3 6 6 6 3 3
0 0 0 0 0 0 0 0 0 0 0 0 0 0 0 0 0 3 3 3 3 6 3 0 0 0 3 6 10 6 6 10 6 10 13 16 19 13 19 13 13 6 3 6
0 0 0 0 0 0 0 0 0 0 0 0 0 0 3 6 3 6 6 10 3 6 6 0 0 0 3 3 3 3 13 13 13 10 13 13 16 13 19 23 19 16 19 23
0 0 0 0 0 0 0 0 0 0 0 0 0 0 6 10 6 6 10 10 13 10 13 10 3 0 0 3 3 3 10 10 13 10 13 16 13 13 19 13 16 19 23 26
0 0 0 0 0 0 0 0 0 0 0 0 0 6 6 10 6 6 13 13 13 19 16 13 10 6 3 3 10 6 13 19 16 13 13 10 16 16 19 16 19 16 16 19
0 0 0 0 0 0 0 0 0 0 0 0 0 10 6 3 0 3 13 16 16 19 16 16 10 10 10 13 16 19 13 13 13 16 16 16 16 23 23 23 19 16 16 13
0 0 0 0 0 0 0 0 0 0 0 0 6 3 3 3 10 13 13 19 23 19 16 13 10 10 10 13 23 13 10 6 13 16 19 19 19 26 26 26 16 16 19 13
0 0 0 0 0 0 0 0 0 3 6 0 0 3 3 3 6 6 13 13 10 13 10 6 10 6 6 16 19 13 16 13 19 19 19 23 26 23 19 16 19 16 16 13
0 0 0 0 0 0 0 0 3 6 6 3 3 3 6 6 6 6 6 6 6 10 10 3 3 3 6 10 10 13 13 13 16 16 19 19 16 16 10 16 16 16 13 13
0 0 0 0 0 0 0 0 3 6 6 6 3 3 10 6 10 6 3 3 3 3 3 0 0 6 6 3 6 13 13 13 13 16 13 13 13 13 10 13 13 6 13 13
0 0 0 0 0 0 0 0 3 0 0 3 3 3 3 3 6 3 3 3 3 6 6 6 3 3 3 3 6 10 10 13 13 10 13 13 13 13 13 13 10 6 6 13
0 0 0 0 0 0 0 0 3 0 0 0 6 3 3 0 0 0 3 6 10 10 10 13 16 10 3 3 3 6 3 3 6 10 10 13 13 13 13 10 6 6 6 3
0 0 0 0 0 0 0 0 0 0 0 0 3 3 0 0 3 3 3 10 10 10 10 10 10 6 0 0 3 3 3 3 3 6 6 10 10 13 13 6 6 6 3 3
0 0 0 0 3 0 0 0 3 0 0 3 0 0 3 3 3 3 6 10 6 6 6 6 3 6 3 0 0 3 3 3 3 6 6 6 10 13 13 10 10 6 6 6
0 0 0 3 3 0 0 0 0 0 0 0 3 3 3 3 6 6 3 6 6 6 6 6 3 0 3 3 0 0 0 3 6 6 6 6 10 10 6 6 6 3 3 6
0 0 0 3 0 0 0 0 3 6 6 3 3 3 6 6 6 6 10 10 3 3 3 3 0 0 3 3 3 0 0 0 3 6 6 6 10 6 3 3 6 3 3 3
Height
5894 5897 5898 5899 5900 5901 5901 5902 5902 5903 5902 5902 5902 5902 5902 5901 5900 5899 5897 5896 5894 5892 5891 5889 5887 5886 5885 5884 5883 5882 5881 5880 5879 5878 5878 5877 5877 5877 5877 5877 5877 5878 5879 5879
5893 5895 5897 5897 5898 5899 5900 5901 5901 5901 5901 5901 5901 5902 5901 5901 5900 5899 5898 5896 5895 5893 5891 5890 5888 5887 5886 5885 5884 5883 5882 5881 5881 5880 5879 5879 5878 5878 5878 5878 5879 5880 5880 5881
5891 5893 5894 5895 5896 5897 5898 5899 5900 5900 5900 5900 5901 5901 5901 5900 5899 5899 5898 5897 5895 5893 5892 5891 5889 5888 5886 5886 5885 5884 5883 5882 5882 5881 5881 5880 5879 5879 5880 5880 5880 5880 5881 5881
5887 5889 5891 5892 5894 5896 5897 5898 5898 5898 5898 5898 5900 5900 5900 5899 5899 5898 5897 5896 5895 5893 5892 5890 5889 5888 5887 5886 5885 5885 5884 5883 5883 5882 5882 5882 5882 5882 5881 5881 5881 5881 5882 5882
5884 5886 5888 5890 5892 5893 5895 5896 5896 5896 5896 5897 5897 5898 5899 5898 5898 5898 5897 5896 5894 5893 5891 5890 5888 5888 5887 5886 5886 5885 5884 5883 5883 5883 5883 5883 5883 5883 5882 5882 5882 5883 5883 5883
5881 5883 5884 5887 5889 5890 5892 5893 5893 5894 5894 5895 5896 5896 5897 5896 5896 5896 5895 5894 5893 5892 5891 5889 5888 5887 5886 5885 5885 5885 5884 5883 5883 5883 5883 5883 5883 5883 5883 5883 5883 5883 5883 5883
5877 5879 5880 5883 5885 5887 5889 5891 5891 5891 5891 5892 5894 5893 5895 5894 5894 5894 5893 5892 5892 5891 5890 5889 5887 5887 5886 5885 5884 5884 5883 5883 5882 5882 5882 5882 5883 5883 5883 5883 5883 5883 5883 5883
5872 5875 5877 5879 5881 5883 5885 5887 5888 5888 5889 5890 5890 5890 5892 5892 5892 5892 5892 5891 5890 5889 5888 5887 5886 5885 5885 5884 5883 5883 5882 5882 5882 5882 5882 5882 5882 5882 5882 5882 5882 5882 5882 5882
5867 5870 5872 5874 5877 5879 5881 5882 5884 5885 5885 5886 5887 5888 5889 5889 5889 5890 5890 5889 5888 5887 5886 5885 5884 5884 5883 5882 5882 5881 5881 5881 5881 5881 5881 5881 5881 5881 5881 5881 5881 5881 5881 5881
5862 5865 5867 5870 5872 5874 5877 5878 5880 5880 5881 5881 5882 5884 5885 5886 5887 5887 5887 5887 5886 5885 5884 5883 5882 5881 5881 5880 5879 5879 5879 5879 5879 5879 5879 5879 5879 5879 5880 5880 5880 5879 5879 5879
5857 5860 5862 5865 5867 5869 5871 5873 5874 5876 5877 5877 5878 5882 5882 5883 5883 5884 5884 5884 5883 5882 5881 5880 5879 5879 5878 5878 5877 5877 5876 5876 5877 5877 5877 5878 5877 5877 5878 5878 5877 5877 5877 5876
5852 5854 5856 5859 5862 5864 5866 5868 5870 5871 5872 5873 5874 5879 5877 5878 5879 5880 5880 5880 5880 5879 5878 5877 5876 5876 5875 5875 5874 5874 5873 5873 5874 5874 5875 5875 5875 5875 5875 5875 5874 5874 5873 5873
5846 5849 5851 5854 5858 5859 5860 5862 5864 5866 5867 5868 5869 5874 5873 5874 5874 5875 5875 5875 5875 5874 5874 5873 5872 5872 5872 5872 5871 5871 5870 5870 5871 5871 5872 5872 5872 5871 5871 5871 5870 5869 5869 5869
5842 5843 5847 5849 5851 5853 5855 5857 5859 5860 5861 5863 5864 5866 5868 5869 5870 5870 5870 5870 5870 5869 5869 5868 5868 5868 5868 5868 5867 5867 5867 5867 5867 5868 5868 5868 5868 5867 5867 5865 5865 5865 5864 5864
5836 5838 5841 5843 5846 5847 5849 5851 5853 5855 5856 5858 5859 5860 5862 5863 5864 5864 5864 5864 5864 5864 5864 5863 5863 5863 5863 5863 5863 5863 5863 5864 5863 5864 5864 5863 5863 5863 5862 5861 5860 5860 5859 5858
5831 5833 5835 5837 5840 5841 5843 5846 5847 5849 5850 5852 5853 5855 5856 5857 5858 5858 5858 5858 5858 5858 5858 5858 5858 5858 5858 5858 5859 5859 5859 5859 5858 5858 5858 5858 5858 5857 5856 5855 5855 5854 5853 5853
5825 5827 5829 5831 5833 5834 5837 5840 5841 5842 5844 5846 5847 5849 5849 5850 5851 5852 5852 5852 5852 5852 5852 5853 5853 5853 5853 5853 5853 5853 5854 5853 5853 5853 5852 5852 5851 5851 5850 5849 5848 5848 5847 5846
5820 5822 5823 5825 5827 5828 5833 5833 5834 5836 5837 5839 5840 5842 5843 5843 5844 5844 5845 5845 5845 5846 5846 5846 5846 5846 5846 5846 5846 5846 5847 5847 5847 5847 5846 5845 5844 5844 5843 5842 5841 5840 5840 5839
5813 5815 5817 5818 5819 5821 5825 5827 5827 5829 5831 5833 5834 5835 5836 5837 5837 5838 5838 5838 5839 5839 5839 5839 5839 5839 5839 5839 5839 5840 5840 5840 5839 5839 5838 5838 5837 5837 5836 5835 5834 5833 5832 5831
5807 5809 5811 5812 5813 5815 5820 5821 5821 5823 5824 5827 5827 5828 5829 5830 5830 5832 5832 5832 5832 5832 5832 5832 5832 5832 5832 5832 5832 5833 5833 5833 5832 5831 5831 5830 5829 5829 5828 5827 5826 5825 5824 5823
5801 5802 5804 5806 5807 5809 5812 5814 5815 5817 5819 5820 5820 5821 5822 5822 5824 5824 5824 5824 5824 5825 5825 5825 5825 5825 5825 5825 5826 5826 5826 5825 5825 5824 5823 5822 5821 5820 5820 5819 5817 5816 5815 5814
5794 5796 5798 5799 5801 5805 5806 5806 5808 5809 5811 5811 5812 5813 5814 5815 5815 5815 5816 5816 5817 5817 5818 5818 5818 5818 5818 5818 5818 5818 5818 5818 5817 5816 5815 5814 5813 5812 5810 5809 5808 5807 5806 5805
5787 5790 5791 5794 5797 5798 5798 5799 5800 5802 5803 5804 5805 5806 5807 5807 5808 5808 5809 5809 5810 5810 5810 5811 5811 5811 5811 5810 5810 5810 5810 5810 5809 5808 5807 5806 5804 5803 5802 5800 5799 5798 5796 5796
5781 5782 5784 5786 5788 5790 5791 5792 5793 5795 5796 5797 5798 5799 5800 5800 5801 5801 5802 5802 5802 5802 5803 5803 5803 5803 5803 5802 5802 5802 5802 5802 5801 5800 5798 5797 5796 5794 5793 5792 5790 5789 5787 5786
5775 5775 5777 5779 5781 5782 5785 5786 5787 5788 5789 5790 5791 5791 5792 5793 5793 5793 5794 5794 5794 5795 5795 5795 5795 5795 5795 5794 5794 5794 5794 5793 5792 5791 5790 5788 5787 5786 5785 5783 5782 5780 5778 5776
5768 5769 5771 5772 5774 5776 5778 5780 5781 5782 5783 5783 5784 5784 5784 5785 5786 5786 5786 5786 5787 5787 5787 5787 5787 5787 5787 5787 5786 5786 5785 5784 5784 5782 5781 5780 5778 5777 5776 5775 5773 5771 5770 5768
Wind_Speed
15 13 11 11 10 9 9 8 6 5 5 3 2 3 3 4 6 7 8 8 9 10 10 9 9 9 8 8 7 7 6 6 6 6 6 6 6 6 6 6 5 5 4 4
15 13 12 13 13 11 11 10 8 6 7 6 5 3 2 3 4 5 6 7 7 8 9 8 8 7 7 7 6 6 6 5 5 6 6 5 5 5 5 6 5 4 3 3
17 15 15 14 13 12 12 11 10 9 9 8 7 5 4 3 3 4 5 6 8 7 7 8 6 6 5 5 5 5 5 4 5 5 5 5 4 4 4 4 4 3 3 3
18 17 17 16 14 13 13 12 12 11 11 10 9 7 6 5 4 4 5 5 7 7 6 6 6 5 4 4 3 3 3 3 3 3 3 3 3 3 3 4 4 3 3 2
19 19 19 18 16 16 14 13 14 13 13 11 11 10 7 7 6 5 5 6 6 7 6 6 6 5 4 3 3 2 2 2 1 1 2 1 1 2 2 2 3 2 2 1
21 21 21 19 18 18 16 16 16 15 15 14 12 12 9 9 9 8 7 7 7 6 6 6 5 4 4 3 3 3 2 2 1 1 0 1 1 1 1 0 1 1 0 0
22 22 22 21 20 19 18 18 17 17 17 15 13 14 11 10 9 9 8 8 8 7 6 6 6 4 4 4 3 3 2 2 2 3 3 2 2 2 2 1 2 2 1 2
24 24 23 23 22 21 20 19 19 19 18 17 15 14 12 10 10 9 9 9 9 8 7 7 7 5 5 6 6 5 3 4 3 3 3 3 3 3 3 3 3 3 3 4
25 25 25 24 22 23 22 22 21 21 20 19 18 16 14 12 11 11 10 10 10 10 9 9 8 8 8 7 7 7 5 5 4 4 4 4 4 4 5 5 5 5 5 6
24 25 25 25 24 23 23 23 22 22 21 21 19 17 16 14 13 13 12 11 11 12 11 11 11 9 8 8 8 8 7 7 7 6 5 5 5 6 7 7 8 8 9 9
24 25 25 26 26 25 24 24 23 22 22 22 22 19 17 17 16 15 14 13 13 13 13 12 12 11 10 10 10 9 9 8 7 7 7 7 7 8 8 9 10 11 11 11
24 25 25 27 27 26 25 25 23 23 23 23 24 21 19 18 18 18 17 16 15 15 14 14 13 12 12 12 11 11 10 9 9 9 9 10 10 11 11 12 13 14 14 13
23 25 26 27 27 27 27 25 24 24 24 24 24 22 20 19 19 19 19 19 18 17 17 16 15 14 14 14 14 14 14 13 12 11 12 12 13 13 14 14 15 16 16 16
23 25 26 27 27 28 28 27 25 25 26 26 26 24 23 22 21 21 21 21 20 19 19 19 18 17 16 17 16 16 16 15 14 14 15 15 15 15 16 16 16 17 17 17
23 24 24 25 26 27 28 28 27 27 26 27 27 26 24 23 22 22 22 22 21 21 20 20 19 18 18 17 17 17 17 18 17 17 17 17 18 18 19 18 19 19 18 18
23 24 24 25 26 28 28 27 27 26 27 27 27 27 26 24 23 23 23 22 22 21 21 20 20 20 19 19 18 18 18 19 19 19 20 20 20 20 21 20 20 21 20 20
24 25 26 26 27 29 29 28 28 27 26 27 27 27 26 26 24 24 24 24 23 23 22 21 21 21 20 20 20 20 21 21 21 21 21 22 22 22 22 22 22 23 23 23
25 26 27 28 28 29 28 27 27 27 26 27 26 26 25 25 26 26 26 25 24 23 23 23 22 22 21 21 22 22 23 23 24 24 24 24 24 24 25 26 25 25 26 25
26 27 27 28 29 29 28 26 26 26 26 26 26 26 25 25 26 27 26 25 25 24 23 23 23 23 23 22 23 23 24 24 25 25 26 26 27 27 27 28 28 27 26 26
26 27 28 28 29 29 27 26 26 26 26 26 26 26 25 25 26 25 25 25 25 25 24 24 24 24 24 24 23 24 25 25 26 26 27 28 28 28 29 29 29 28 28 28
27 27 27 28 28 28 27 26 26 26 25 26 26 26 24 25 25 25 25 26 26 26 26 26 25 25 24 24 24 24 24 25 26 27 28 28 29 29 30 30 29 29 29 30
27 27 27 28 28 27 26 26 26 25 25 26 26 25 26 25 26 26 25 25 26 26 26 26 26 26 26 25 25 25 25 25 26 26 27 27 27 28 29 29 29 29 30 30
27 27 27 27 27 25 24 25 26 25 24 25 26 26 26 26 26 26 26 26 26 27 26 26 27 26 26 26 26 26 26 26 27 27 28 28 28 28 28 28 28 28 30 31
26 26 27 27 27 26 25 25 25 24 25 26 26 27 26 26 26 27 27 28 28 27 26 26 26 27 26 26 26 26 27 27 28 28 29 29 29 29 28 28 29 30 31 32
24 25 26 27 26 25 24 24 24 23 24 25 25 26 26 26 26 26 27 27 27 26 25 26 26 26 26 26 26 27 28 29 29 30 30 30 30 30 29 29 30 31 31 32
22 23 25 25 24 23 22 23 23 23 23 23 23 24 24 24 25 25 25 25 25 25 25 25 25 25 26 27 27 28 29 30 31 31 31 30 30 30 31 31 31 31 31 32
Wind_Direction
228 230 231 235 238 237 245 252 264 287 302 301 331 340 3 26 35 32 26 29 31 32 31 34 34 39 43 46 53 62 66 67 69 71 82 90 95 105 113 103 100 99 102 106
229 230 230 232 234 233 240 248 255 268 281 283 288 289 306 347 14 16 19 22 24 24 24 27 33 33 37 39 45 54 62 66 67 70 81 96 98 103 108 110 107 109 106 108
228 229 229 230 230 233 239 246 253 266 273 275 275 275 278 300 314 342 354 6 12 11 13 16 20 21 23 30 39 46 56 65 69 69 71 80 95 99 97 109 112 112 112 98
226 227 229 230 231 237 242 249 253 262 269 273 271 271 271 277 295 316 329 343 352 356 357 1 3 3 12 17 29 42 48 57 67 70 77 82 92 90 88 92 101 107 111 98
229 229 232 233 233 237 241 244 252 259 265 264 268 273 275 276 291 303 315 321 326 340 339 344 353 349 352 349 350 5 15 25 48 61 63 69 85 99 103 89 92 94 97 110
230 232 234 235 235 238 240 242 249 255 260 261 267 275 278 276 287 293 296 302 304 319 324 322 329 327 326 321 320 321 332 334 299 275 277 290 288 248 231 150 84 61 84 270
231 233 234 236 235 238 241 243 247 253 257 264 268 274 279 277 277 284 292 294 295 304 312 313 320 314 301 300 289 292 292 307 272 258 255 258 275 279 265 258 271 292 290 282
235 235 235 235 236 238 240 243 249 256 261 264 264 270 277 278 277 281 288 297 296 302 306 304 303 299 292 284 286 284 288 307 279 268 271 268 274 271 266 267 271 276 277 280
237 237 237 236 235 236 240 243 248 256 261 264 266 269 269 274 275 278 285 293 296 298 297 295 295 292 287 279 282 282 286 292 280 268 264 258 268 267 267 272 274 279 279 280
238 238 237 237 236 237 240 243 247 253 259 262 265 268 271 270 274 277 282 284 287 291 289 291 290 290 287 284 288 285 281 283 277 270 262 256 254 259 270 274 274 276 278 279
240 240 239 239 237 238 239 242 245 250 257 261 264 267 273 274 274 278 281 281 283 288 287 286 286 287 284 287 284 284 278 274 271 268 265 260 260 263 267 271 273 275 278 279
241 241 240 239 239 240 241 243 245 250 255 259 264 267 271 274 274 277 278 280 281 284 285 284 282 283 283 284 283 282 273 267 268 268 268 268 266 266 266 268 271 272 272 276
241 241 240 238 239 239 240 242 246 251 255 259 264 267 270 271 275 277 276 278 280 282 284 283 281 283 285 286 284 283 274 272 270 269 269 269 269 268 266 267 269 271 272 274
242 243 241 241 241 241 242 243 246 251 255 259 264 268 271 271 274 276 275 276 277 280 282 280 280 281 284 285 280 277 270 270 270 270 271 269 271 271 270 271 273 272 272 272
243 244 244 244 244 245 246 246 248 251 257 260 263 267 270 272 274 273 272 272 273 276 279 279 278 277 280 280 276 273 271 270 269 270 272 272 273 271 275 276 277 277 272 271
244 245 244 244 245 247 248 248 250 254 258 261 263 266 270 272 274 273 272 273 273 274 274 273 275 273 272 272 272 272 272 270 271 274 276 274 275 275 274 275 276 277 273 272
246 247 247 247 247 249 251 250 251 254 257 261 263 266 269 268 269 271 271 271 272 272 270 269 271 271 268 268 271 273 272 273 275 277 278 277 276 275 275 275 277 278 275 272
247 247 249 251 250 252 254 254 255 256 255 258 262 264 268 265 264 267 268 268 270 272 272 272 273 272 269 270 271 271 272 273 275 277 279 279 277 276 277 278 279 278 276 273
248 250 251 251 252 255 255 256 257 257 256 257 259 262 263 264 263 264 266 266 268 269 270 271 273 275 272 271 269 270 273 275 276 276 278 278 277 276 277 279 279 278 275 275
249 251 252 252 253 255 256 256 259 260 258 258 260 262 262 261 263 264 265 265 264 266 268 271 274 274 274 270 271 272 275 277 278 279 280 278 277 277 277 278 278 278 277 276
249 250 251 253 255 257 258 259 261 261 261 262 263 263 262 260 263 265 262 264 265 265 265 269 273 274 276 276 274 274 275 277 278 280 280 281 280 280 279 279 278 278 277 277
248 249 250 253 256 258 257 258 259 261 262 263 263 264 266 265 264 264 266 267 271 271 268 268 271 273 274 275 274 275 275 276 278 280 281 281 283 283 280 279 279 278 278 280
249 249 252 253 255 255 255 257 260 262 264 266 265 266 266 266 267 268 269 269 273 272 270 270 272 273 274 274 275 274 274 276 278 281 282 283 284 282 281 281 280 281 282 282
249 250 251 251 252 253 256 258 261 264 266 267 267 266 267 268 268 269 270 270 271 271 270 271 273 274 274 274 274 273 273 275 278 281 283 284 283 282 281 282 283 284 285 285
251 251 251 251 252 254 257 259 260 262 263 264 266 268 268 268 269 269 270 269 268 268 269 270 272 273 272 273 274 275 275 277 279 281 282 283 282 282 282 284 284 284 284 286
251 253 253 252 253 255 256 258 260 262 263 262 265 266 267 266 267 268 268 267 267 268 268 268 271 272 274 275 276 277 277 279 280 280 280 281 282 282 282 284 285 284 284 286